| time (UTC) | temp C | wind direction | speed KPH | gust KPH | rain 1hr cm | rain 24hr cm | rain mn cm | humidity % | barometer mb |
| 20260510141518 | 19 | 190 | 0.0 | 0.0 | 0.00 | 0.00 | 0.00 | 63 | 1016.5 |
| 20260510140023 | 18 | 129 | 0.0 | 0.0 | 0.00 | 0.00 | 0.00 | 69 | 1016.6 |
| 20260510134508 | 16 | 176 | 0.0 | 0.0 | 0.00 | 0.00 | 0.00 | 71 | 1016.6 |
| 20260510133028 | 15 | 111 | 0.0 | 0.0 | 0.00 | 0.00 | 0.00 | 78 | 1017.1 |
| 20260510131517 | 13 | 164 | 0.0 | 0.0 | 0.00 | 0.00 | 0.00 | 81 | 1017.0 |
| 20260510130023 | 12 | 79 | 0.0 | 0.0 | 0.00 | 0.00 | 0.00 | 84 | 1017.1 |
| 20260510124524 | 11 | 81 | 0.0 | 0.0 | 0.00 | 0.00 | 0.00 | 90 | 1017.0 |
| 20260510123009 | 9 | 103 | 0.0 | 0.0 | 0.00 | 0.00 | 0.00 | 95 | 1016.8 |
| 20260510121516 | 7 | 60 | 0.0 | 0.0 | 0.00 | 0.00 | 0.00 | 95 | 1016.8 |
| 20260510120027 | 6 | 77 | 0.0 | 0.0 | 0.00 | 0.00 | 0.00 | 94 | 1016.7 |
| 20260510114525 | 5 | 156 | 0.0 | 0.0 | 0.00 | 0.00 | 0.00 | 94 | 1016.9 |
| 20260510113024 | 5 | 155 | 0.0 | 0.0 | 0.00 | 0.00 | 0.00 | 94 | 1016.7 |
| 20260510111516 | 5 | 156 | 0.0 | 0.0 | 0.00 | 0.00 | 0.00 | 94 | 1016.4 |
| 20260510110021 | 5 | 156 | 0.0 | 0.0 | 0.00 | 0.00 | 0.00 | 94 | 1016.3 |
| 20260510104521 | 5 | 142 | 0.0 | 0.0 | 0.00 | 0.00 | 0.00 | 94 | 1016.0 |
| 20260510103024 | 5 | 142 | 0.0 | 0.0 | 0.00 | 0.00 | 0.00 | 94 | 1015.8 |
| 20260510101527 | 5 | 142 | 0.0 | 0.0 | 0.00 | 0.00 | 0.00 | 94 | 1015.9 |
| 20260510100016 | 5 | 142 | 0.0 | 0.0 | 0.00 | 0.00 | 0.00 | 94 | 1015.7 |
| 20260510094519 | 5 | 142 | 0.0 | 0.0 | 0.00 | 0.00 | 0.00 | 93 | 1015.6 |
| 20260510093024 | 5 | 142 | 0.0 | 0.0 | 0.00 | 0.00 | 0.00 | 93 | 1015.5 |
| 20260510091528 | 5 | 142 | 0.0 | 0.0 | 0.00 | 0.00 | 0.00 | 93 | 1015.1 |
| 20260510085959 | 5 | 142 | 0.0 | 0.0 | 0.00 | 0.00 | 0.00 | 93 | 1015.1 |
| 20260510084503 | 5 | 142 | 0.0 | 0.0 | 0.00 | 0.00 | 0.00 | 93 | 1015.0 |
| 20260510083005 | 5 | 104 | 0.0 | 0.0 | 0.00 | 0.00 | 0.00 | 93 | 1014.8 |
| 20260510081507 | 6 | 104 | 0.0 | 0.0 | 0.00 | 0.00 | 0.00 | 93 | 1014.8 |
| 20260510080004 | 6 | 104 | 0.0 | 0.0 | 0.00 | 0.00 | 0.00 | 93 | 1014.8 |
| 20260510074506 | 6 | 104 | 0.0 | 0.0 | 0.00 | 0.00 | 0.00 | 93 | 1014.6 |
| 20260510073007 | 6 | 156 | 0.0 | 0.0 | 0.00 | 0.00 | 0.00 | 93 | 1014.6 |
| 20260510071506 | 6 | 10 | 0.0 | 0.0 | 0.00 | 0.00 | 0.00 | 93 | 1014.4 |
| 20260510070006 | 6 | 10 | 0.0 | 0.0 | 0.00 | 0.00 | 0.00 | 92 | 1014.5 |
| 20260510064504 | 6 | 10 | 0.0 | 0.0 | 0.00 | 0.00 | 0.00 | 92 | 1014.4 |
| 20260510063006 | 6 | 10 | 0.0 | 0.0 | 0.00 | 0.00 | 0.00 | 92 | 1014.3 |
| 20260510061504 | 6 | 10 | 0.0 | 0.0 | 0.00 | 0.00 | 0.00 | 92 | 1014.2 |
| 20260510060015 | 7 | 10 | 0.0 | 0.0 | 0.00 | 0.00 | 0.00 | 91 | 1014.3 |
| 20260510054505 | 7 | 147 | 0.0 | 0.0 | 0.00 | 0.00 | 0.00 | 90 | 1014.3 |
| 20260510053013 | 7 | 134 | 0.0 | 0.0 | 0.00 | 0.00 | 0.00 | 90 | 1014.3 |
| 20260510051508 | 7 | 135 | 0.0 | 0.0 | 0.00 | 0.00 | 0.00 | 89 | 1014.2 |
| 20260510050004 | 7 | 1 | 0.0 | 0.0 | 0.00 | 0.00 | 0.00 | 88 | 1014.2 |
| 20260510044509 | 8 | 1 | 0.0 | 0.0 | 0.00 | 0.00 | 0.00 | 87 | 1014.3 |
| 20260510043012 | 8 | 1 | 0.0 | 0.0 | 0.00 | 0.00 | 0.00 | 86 | 1014.3 |
| 20260510041511 | 8 | 1 | 0.0 | 0.0 | 0.00 | 0.00 | 0.00 | 85 | 1014.2 |
| 20260510040016 | 8 | 1 | 0.0 | 0.0 | 0.00 | 0.00 | 0.00 | 84 | 1014.1 |
| 20260510034509 | 9 | 1 | 0.0 | 3.2 | 0.00 | 0.00 | 0.00 | 82 | 1014.3 |
| 20260510033013 | 9 | 360 | 0.0 | 3.2 | 0.00 | 0.00 | 0.00 | 82 | 1014.1 |
| 20260510031517 | 10 | 360 | 0.0 | 3.2 | 0.00 | 0.00 | 0.00 | 80 | 1014.3 |
| 20260510030016 | 10 | 1 | 0.0 | 8.0 | 0.00 | 0.00 | 0.00 | 77 | 1014.1 |
| 20260510024516 | 11 | 349 | 3.2 | 8.0 | 0.00 | 0.00 | 0.00 | 76 | 1013.7 |
| 20260510023008 | 11 | 29 | 1.6 | 6.4 | 0.00 | 0.00 | 0.00 | 76 | 1013.6 |
| 20260510021531 | 11 | 41 | 1.6 | 3.2 | 0.00 | 0.00 | 0.00 | 75 | 1013.5 |
| 20260510020018 | 12 | 6 | 3.2 | 9.7 | 0.00 | 0.00 | 0.00 | 72 | 1013.2 |
| 20260510014515 | 12 | 30 | 1.6 | 6.4 | 0.00 | 0.00 | 0.00 | 73 | 1013.0 |
| 20260510013017 | 12 | 4 | 0.0 | 4.8 | 0.00 | 0.00 | 0.00 | 73 | 1012.7 |
| 20260510011512 | 12 | 359 | 1.6 | 4.8 | 0.00 | 0.00 | 0.00 | 73 | 1012.5 |
| 20260510010017 | 12 | 350 | 0.0 | 0.0 | 0.00 | 0.00 | 0.00 | 72 | 1012.4 |
| 20260510004519 | 13 | 6 | 0.0 | 3.2 | 0.00 | 0.00 | 0.00 | 70 | 1012.1 |
| 20260510003020 | 13 | 11 | 0.0 | 3.2 | 0.00 | 0.00 | 0.00 | 67 | 1012.0 |
| 20260510001523 | 15 | 354 | 0.0 | 3.2 | 0.00 | 0.00 | 0.00 | 63 | 1011.7 |
| 20260510000020 | 16 | 75 | 0.0 | 1.6 | 0.00 | 0.00 | 0.00 | 60 | 1011.5 |
| 20260509234524 | 16 | 359 | 0.0 | 3.2 | 0.00 | 0.00 | 0.00 | 57 | 1011.2 |
| 20260509233022 | 17 | 326 | 0.0 | 3.2 | 0.00 | 0.00 | 0.00 | 52 | 1010.9 |
| 20260509231519 | 18 | 343 | 1.6 | 4.8 | 0.00 | 0.00 | 0.00 | 49 | 1011.0 |
| 20260509230020 | 19 | 305 | 0.0 | 3.2 | 0.00 | 0.00 | 0.00 | 45 | 1010.9 |
| 20260509224518 | 20 | 328 | 1.6 | 6.4 | 0.00 | 0.00 | 0.00 | 43 | 1011.1 |
| 20260509223025 | 20 | 54 | 1.6 | 11.3 | 0.00 | 0.00 | 0.00 | 40 | 1011.1 |
| 20260509221522 | 21 | 44 | 0.0 | 16.1 | 0.00 | 0.00 | 0.00 | 40 | 1011.1 |
| 20260509220022 | 21 | 108 | 3.2 | 8.0 | 0.00 | 0.00 | 0.00 | 39 | 1010.9 |
| 20260509214523 | 21 | 146 | 9.7 | 16.1 | 0.00 | 0.00 | 0.00 | 39 | 1010.8 |
| 20260509213004 | 21 | 196 | 6.4 | 16.1 | 0.00 | 0.00 | 0.00 | 39 | 1010.7 |
| 20260509211511 | 22 | 279 | 1.6 | 16.1 | 0.00 | 0.00 | 0.00 | 38 | 1010.5 |
| 20260509210011 | 22 | 151 | 9.7 | 16.1 | 0.00 | 0.00 | 0.00 | 37 | 1010.2 |
| 20260509204512 | 22 | 99 | 3.2 | 11.3 | 0.00 | 0.00 | 0.00 | 39 | 1010.3 |
| 20260509203002 | 22 | 178 | 4.8 | 11.3 | 0.00 | 0.00 | 0.00 | 40 | 1010.1 |
| 20260509201505 | 21 | 145 | 3.2 | 14.5 | 0.00 | 0.00 | 0.00 | 41 | 1010.1 |
| 20260509200006 | 21 | 141 | 3.2 | 27.4 | 0.00 | 0.00 | 0.00 | 38 | 1010.0 |
| 20260509194512 | 21 | 146 | 4.8 | 12.9 | 0.00 | 0.00 | 0.00 | 39 | 1010.1 |
| 20260509193016 | 22 | 143 | 6.4 | 14.5 | 0.00 | 0.00 | 0.00 | 35 | 1010.1 |
| 20260509191501 | 23 | 56 | 0.0 | 11.3 | 0.00 | 0.00 | 0.00 | 38 | 1010.1 |
| 20260509190006 | 21 | 179 | 3.2 | 9.7 | 0.00 | 0.00 | 0.00 | 42 | 1010.3 |
| 20260509184513 | 21 | 136 | 6.4 | 16.1 | 0.00 | 0.00 | 0.00 | 40 | 1010.5 |
| 20260509183015 | 23 | 131 | 11.3 | 16.1 | 0.00 | 0.00 | 0.00 | 38 | 1010.5 |
| 20260509181517 | 23 | 153 | 4.8 | 20.9 | 0.00 | 0.00 | 0.00 | 38 | 1010.4 |
| 20260509180005 | 23 | 87 | 4.8 | 12.9 | 0.00 | 0.00 | 0.00 | 36 | 1010.7 |
| 20260509174504 | 21 | 146 | 11.3 | 20.9 | 0.00 | 0.00 | 0.00 | 43 | 1010.9 |
| 20260509173012 | 21 | 50 | 4.8 | 9.7 | 0.00 | 0.00 | 0.00 | 40 | 1010.9 |
| 20260509171525 | 21 | 128 | 3.2 | 22.5 | 0.00 | 0.00 | 0.00 | 42 | 1011.1 |
| 20260509170027 | 20 | 127 | 8.0 | 24.1 | 0.00 | 0.00 | 0.00 | 42 | 1011.4 |
| 20260509164507 | 20 | 60 | 1.6 | 17.7 | 0.00 | 0.00 | 0.00 | 45 | 1011.6 |
| 20260509163014 | 20 | 126 | 9.7 | 19.3 | 0.00 | 0.00 | 0.00 | 48 | 1011.6 |
| 20260509161515 | 20 | 43 | 4.8 | 16.1 | 0.00 | 0.00 | 0.00 | 46 | 1011.4 |
| 20260509160022 | 21 | 33 | 4.8 | 14.5 | 0.00 | 0.00 | 0.00 | 43 | 1011.3 |
| 20260509154523 | 20 | 117 | 6.4 | 16.1 | 0.00 | 0.00 | 0.00 | 46 | 1011.5 |
| 20260509153006 | 20 | 130 | 4.8 | 11.3 | 0.00 | 0.00 | 0.00 | 45 | 1011.6 |
| 20260509151514 | 19 | 115 | 0.0 | 0.0 | 0.00 | 0.00 | 0.00 | 52 | 1011.7 |
| 20260509150030 | 18 | 109 | 0.0 | 0.0 | 0.00 | 0.00 | 0.00 | 53 | 1011.6 |
| 20260509144531 | 17 | 185 | 0.0 | 0.0 | 0.00 | 0.00 | 0.00 | 58 | 1011.9 |
| 20260509143024 | 16 | 129 | 0.0 | 0.0 | 0.00 | 0.00 | 0.00 | 59 | 1012.0 |